Погода в Светлогорске

Россия / Калининградская область     54°56′38″N   20°09′05″E
темп.,
°C
ветер,
м/с
пор.,
м/с
влажн.,
%
обл.,
%
осадки,
мм/ч
давл.,
гПа
погр.,
м
25 февраля, чт
чт2523:00+5юз78957 0.0 102775
02:00+5зюз78923 0.0 102772
05:00+5зюз7895100 0.0 102584
08:00+5юз679567 0.0 102661
11:00+6юз788984 0.0 102575
14:00+7юз788642 0.0 102467
17:00+7юз78920 0.0 102265
20:00+6зюз67960 0.0 102155
26 февраля, пт
пт2623:00+5зюз8129633 0.0 1021141
02:00+5з10179525 0.0 1021228
05:00+4з10169279 0.0 1020268
08:00+3з11179089 0.0 1020342
11:00+3з11189192 0.0 1020401
14:00+3з11179275 0.0 1020434
17:00+4з12199098 0.0 1018446
20:00+4з12189076 0.0 1019357
27 февраля, сб
сб2723:00+4зсз1116891 0.0 1019269
02:00+3зсз913880 0.0 1020201
05:00+3сз914850 0.0 1021233
08:00+3ссз814850 0.0 1024295
11:00+3ссз913850 0.0 1025343
14:00+3ссз913850 0.0 1027309
17:00+3ссз812860 0.0 1028297
20:00+2ссз710880 0.0 1030239
28 февраля, вс
вс2823:00+2ссз57880 0.0 1031145
02:00+2сз56873 0.0 103190
05:00+2зсз458585 0.0 103165
08:00+3зсз568493 0.0 103174
11:00+3сз458778 0.0 103160
14:00+3з458539 0.0 103275
17:00+3зсз44900 0.0 103152
20:00+3сз348310 0.0 103230
1 марта, пн
пн123:00+3ссз44830 0.0 103331
02:00+2сз23867 0.0 103422
05:00+2зсз338517 0.0 103422
08:00+3з34859 0.0 103526
11:00+3з56830 0.0 103664
14:00+3з67860 0.0 1035100
17:00+3з568633 0.0 103493
20:00+3зюз668630 0.0 103484